FW0418 Weather Reports


time (UTC)temp
C
wind
direction
speed
KPH
gust
KPH
rain 1hr
cm
rain 24hr
cm
rain mn
cm
humidity
%
barometer
mb
20260506231504 18 235 0.0 0.0 0.00 0.00 0.00 87 1007.7
20260506230003 18 235 0.0 1.6 0.00 0.00 0.00 86 1007.1
20260506224504 19 235 0.0 1.6 0.00 0.00 0.00 85 1007.6
20260506223005 19 236 0.0 3.2 0.00 0.00 0.00 83 1007.6
20260506223003 19 236 0.0 3.2 0.00 0.00 0.00 83 1007.0
20260506221504 19 234 0.0 1.6 0.00 0.00 0.00 84 1007.5
20260506220015 20 234 0.0 1.6 0.00 0.00 0.00 83 1006.9
20260506214503 20 233 0.0 1.6 0.00 0.00 0.00 83 1006.8
20260506213004 20 226 0.0 1.6 0.00 0.00 0.00 83 1007.2
20260506213002 20 226 0.0 1.6 0.00 0.00 0.00 83 1006.6
20260506211507 19 233 0.0 3.2 0.00 0.00 0.00 85 1006.4
20260506211504 19 233 0.0 3.2 0.00 0.00 0.00 85 1007.0
20260506210009 18 237 0.0 3.2 0.00 0.00 0.00 85 1006.4
20260506204504 20 235 0.0 3.2 0.00 0.00 0.00 84 1006.5
20260506203005 19 240 0.0 3.2 0.00 0.00 0.00 85 1007.1
20260506201506 19 236 1.6 8.0 0.00 0.00 0.00 86 1007.0
20260506201503 19 236 1.6 8.0 0.00 0.00 0.00 86 1006.4
20260506200006 18 240 0.0 6.4 0.00 0.00 0.00 89 1007.0
20260506194503 18 236 0.0 6.4 0.00 0.00 0.00 90 1006.5
20260506193004 18 237 1.6 6.4 0.00 0.00 0.00 92 1007.3
20260506193002 18 238 0.0 6.4 0.00 0.00 0.00 92 1006.7
20260506191505 17 237 0.0 4.8 0.00 0.00 0.00 95 1007.4
20260506191503 17 237 0.0 4.8 0.00 0.00 0.00 95 1006.7
20260506190006 16 229 0.0 3.2 0.00 0.00 0.00 96 1006.8
20260506184503 16 234 0.0 4.8 0.00 0.00 0.00 96 1007.6
20260506183005 15 235 1.6 3.2 0.00 0.00 0.00 96 1007.7
20260506183002 15 235 0.0 3.2 0.00 0.00 0.00 96 1007.1
20260506181504 15 229 1.6 4.8 0.00 0.00 0.00 96 1007.8
20260506180007 15 235 1.6 6.4 0.00 0.00 0.00 96 1008.0
20260506180005 15 235 1.6 6.4 0.00 0.00 0.00 96 1007.4
20260506174504 15 236 1.6 4.8 0.00 0.00 0.00 96 1007.3
20260506173003 15 231 1.6 6.4 0.00 0.00 0.00 96 1007.3
20260506171507 15 232 0.0 8.0 0.00 0.00 0.00 96 1007.3
20260506171504 15 236 1.6 8.0 0.00 0.00 0.00 96 1008.0
20260506170007 15 233 1.6 4.8 0.00 0.00 0.00 96 1007.8
20260506170005 15 233 1.6 4.8 0.00 0.00 0.00 96 1007.1
20260506164504 15 234 1.6 6.4 0.00 0.00 0.00 96 1008.0
20260506163003 15 229 0.0 8.0 0.00 0.00 0.00 96 1007.5
20260506161504 15 233 0.0 8.0 0.00 0.00 0.00 96 1008.2
20260506160010 15 232 0.0 6.4 0.00 0.00 0.00 96 1007.3
20260506154505 15 232 0.0 4.8 0.00 0.00 0.00 95 1008.6
20260506154502 15 232 0.0 4.8 0.00 0.00 0.00 95 1007.9
20260506153002 15 226 0.0 3.2 0.00 0.00 0.00 95 1008.2
20260506151503 15 220 0.0 3.2 0.00 0.00 0.00 95 1008.4
20260506150005 15 233 0.0 3.2 0.00 0.00 0.00 94 1008.3
20260506144503 15 229 0.0 4.8 0.00 0.00 0.00 94 1008.9
20260506143001 15 226 0.0 3.2 0.00 0.00 0.00 93 1008.3
20260506141503 15 229 0.0 3.2 0.00 0.00 0.00 92 1009.0
20260506140006 15 226 0.0 3.2 0.00 0.00 0.00 91 1008.2
20260506134505 16 230 0.0 3.2 0.00 0.00 0.00 88 1009.0
20260506134502 16 230 0.0 3.2 0.00 0.00 0.00 88 1008.3
20260506133004 16 231 0.0 3.2 0.00 0.00 0.00 87 1008.9
20260506133002 16 231 0.0 3.2 0.00 0.00 0.00 87 1008.2
20260506131503 16 231 0.0 3.2 0.00 0.00 0.00 86 1009.0
20260506130006 16 231 0.0 4.8 0.00 0.00 0.00 85 1009.1
20260506124504 16 231 0.0 3.2 0.00 0.00 0.00 84 1009.1
20260506123005 17 232 1.6 6.4 0.00 0.00 0.00 82 1009.2
20260506123003 17 232 0.0 6.4 0.00 0.00 0.00 82 1008.5
20260506121503 17 235 3.2 8.0 0.00 0.00 0.00 82 1008.2
20260506120006 16 232 1.6 4.8 0.00 0.00 0.00 83 1008.9
20260506114504 16 231 1.6 6.4 0.00 0.00 0.00 82 1007.9
20260506113004 16 238 1.6 6.4 0.00 0.00 0.00 83 1007.8
20260506111506 16 228 0.0 4.8 0.00 0.00 0.00 83 1007.7
20260506110007 16 229 1.6 6.4 0.00 0.00 0.00 83 1008.3
20260506110005 16 229 1.6 6.4 0.00 0.00 0.00 83 1007.6
20260506104504 16 229 1.6 8.0 0.00 0.00 0.00 83 1008.3
20260506104502 16 229 1.6 8.0 0.00 0.00 0.00 83 1007.6
20260506103004 16 229 1.6 8.0 0.00 0.00 0.00 83 1008.1
20260506101504 16 235 3.2 8.0 0.00 0.00 0.00 83 1008.1
20260506100006 16 229 1.6 4.8 0.00 0.00 0.00 82 1008.1
20260506094504 16 240 1.6 6.4 0.00 0.00 0.00 82 1008.0
20260506093004 17 227 1.6 6.4 0.00 0.00 0.00 81 1007.4
20260506091502 17 232 0.0 6.4 0.00 0.00 0.00 80 1007.7
20260506090005 17 233 0.0 4.8 0.00 0.00 0.00 80 1007.7
20260506084503 17 233 0.0 3.2 0.00 0.00 0.00 79 1007.8
20260506083004 17 232 0.0 4.8 0.00 0.00 0.00 78 1008.5
20260506083002 17 232 0.0 4.8 0.00 0.00 0.00 78 1007.8
20260506081505 17 228 0.0 4.8 0.00 0.00 0.00 78 1008.5
20260506081503 17 228 0.0 4.8 0.00 0.00 0.00 78 1007.8
20260506073004 18 243 0.0 3.2 0.00 0.00 0.00 76 1008.6
20260506071503 18 231 0.0 3.2 0.00 0.00 0.00 75 1008.8
20260506061506 18 226 0.0 3.2 0.00 0.00 0.00 72 1008.7
20260506061503 18 226 0.0 3.2 0.00 0.00 0.00 72 1009.3
20260506044504 18 229 0.0 1.6 0.00 0.00 0.00 70 1009.2
20260506043004 18 228 0.0 1.6 0.00 0.00 0.00 70 1009.9
20260506041504 17 229 0.0 1.6 0.00 0.00 0.00 70 1009.3
20260506040019 17 232 0.0 3.2 0.00 0.00 0.00 70 1009.3
20260506040008 17 232 0.0 3.2 0.00 0.00 0.00 70 1009.9
20260506034504 17 229 0.0 1.6 0.00 0.00 0.00 71 1009.3
20260506033005 17 228 0.0 1.6 0.00 0.00 0.00 70 1009.8
20260506031508 17 230 0.0 1.6 0.00 0.00 0.00 70 1009.1
20260506031506 17 230 0.0 1.6 0.00 0.00 0.00 70 1009.7
20260506030008 18 226 0.0 3.2 0.00 0.00 0.00 70 1009.8
20260506030006 18 226 0.0 3.2 0.00 0.00 0.00 70 1009.2
20260506024510 18 226 0.0 3.2 0.00 0.00 0.00 69 1009.1
20260506024506 18 226 0.0 3.2 0.00 0.00 0.00 69 1009.8
20260506023005 18 226 0.0 3.2 0.00 0.00 0.00 68 1009.8
20260506023003 18 226 0.0 3.2 0.00 0.00 0.00 68 1009.1
20260506021505 18 229 0.0 1.6 0.00 0.00 0.00 68 1009.9
20260506021503 18 229 0.0 1.6 0.00 0.00 0.00 68 1009.3
20260506020007 18 230 0.0 4.8 0.00 0.00 0.00 67 1009.8
20260506020005 18 230 0.0 4.8 0.00 0.00 0.00 67 1009.2
20260506014505 19 227 0.0 1.6 0.00 0.00 0.00 66 1009.6
20260506014503 19 227 0.0 1.6 0.00 0.00 0.00 66 1009.0
20260506013004 19 226 0.0 3.2 0.00 0.00 0.00 65 1009.5
20260506011503 20 226 0.0 3.2 0.00 0.00 0.00 63 1008.7
20260506010011 20 231 0.0 1.6 0.00 0.00 0.00 62 1008.5
20260506010007 20 231 0.0 1.6 0.00 0.00 0.00 62 1009.1
20260506004510 20 226 0.0 3.2 0.00 0.00 0.00 61 1008.3
20260506004504 20 226 0.0 3.2 0.00 0.00 0.00 61 1009.0
20260506003008 20 226 0.0 1.6 0.00 0.00 0.00 60 1008.2
20260506003005 20 226 0.0 1.6 0.00 0.00 0.00 60 1008.9
20260506001504 21 227 0.0 1.6 0.00 0.00 0.00 57 1008.8
20260506000006 21 227 0.0 3.2 0.00 0.00 0.00 55 1008.6
20260506000004 21 227 0.0 3.2 0.00 0.00 0.00 55 1008.0
20260505234504 22 241 0.0 4.8 0.00 0.00 0.00 54 1007.9
20260505233005 22 227 0.0 1.6 0.00 0.00 0.00 52 1008.2
20260505233002 22 227 0.0 1.6 0.00 0.00 0.00 52 1007.6